Regional Weather Roundup
Issued by NWS

Home | Current Version | Previous Version | Text Only | Print | Product List | Glossary Off
Versions: 1 2 3 4 5 6 7 8 9 10 11 12 13 14 15 16 17 18 19 20 21 22 23 24 25 26 27 28 29 30 31 32 33 34 35 36 37 38 39 40 41 42 43 44 45 46 47 48 49 50

000
ASUS43 KDTX 010701
RWRMI
MICHIGAN HOURLY REGIONAL WEATHER ROUNDUP
NATIONAL WEATHER SERVICE DETROIT/PONTIAC MI
300 AM EDT SAT OCT 01 2016

NOTE: "FAIR" INDICATES FEW OR NO CLOUDS BELOW 12,000 FEET WITH NO
SIGNIFICANT WEATHER AND/OR OBSTRUCTION TO VISIBILITY.

MIZ047>049-052>055-059>063-066>070-074>076-081>083-010800-
SOUTHEAST LOWER MICHIGAN

CITY           SKY/WX    TMP DP  RH WIND       PRES   REMARKS
ADRIAN         LGT RAIN  59  59 100 E7        30.06S
ALMA           CLOUDY    57  57 100 NE6       30.13S FOG
ANN ARBOR      TSTM      57  57 100 N6        30.07S FOG
BAD AXE        CLOUDY    56  55  99 E8        30.15S FOG
CARO           CLOUDY    56  56  97 E6        30.12F
DETROIT CITY   CLOUDY    58  58 100 NE5       30.08S FOG
DETROIT        LGT RAIN  58  58 100 NE6       30.08S FOG
FLINT          CLOUDY    57  55  93 NE8       30.11S
GROSSE ILE     RAIN      60  59  97 NE7       30.06S
HILLSDALE      LGT RAIN  59  57  94 NE7       30.04F
HOWELL         CLOUDY    56  56  98 NE6       30.08F FOG

CITY           SKY/WX    TMP DP  RH WIND       PRES   REMARKS
JACKSON        CLOUDY    57  57 100 NE8       30.07S
LAMBERTVILLE   RAIN      61  59  94 SE3       30.06R
LANSING        CLOUDY    57  54  89 NE10      30.10F
LAPEER         CLOUDY    56  55  97 E6        30.11F
MASON          CLOUDY    56  55  95 NE6       30.09R FOG
MONROE         HVY RAIN  60  60 100 SE5       30.05S
MT. CLEMENS    CLOUDY    58  57  97 E14       30.07F
PONTIAC        CLOUDY    56  54  93 E10       30.09S FOG
PORT HURON     CLOUDY    55  55 100 E8        30.12S
TRI CITIES     CLOUDY    57  57 100 NE8       30.14F FOG
MIDLAND        CLOUDY    56  56  99 NE12      30.13S FOG
TROY           DRIZZLE   57  55  93 NE7       30.10F
SAGINAW HB     CLOUDY    55  55 100 NE5       30.12F FOG
$$
MIZ043>046-050>051-056>058-064>065-071>073-077>080-010800-
SOUTHWEST LOWER MICHIGAN

CITY           SKY/WX    TMP DP  RH WIND       PRES   REMARKS
BATTLE CREEK   CLOUDY    60  59  96 NE9       30.06F
BENTON HARBOR  CLOUDY    61  57  87 E5        30.05S
BIG RAPIDS     CLOUDY    56  56  97 E12       30.12F FOG
COLDWATER      DRIZZLE   60  60 100 NE6       30.04S
FREMONT        CLOUDY    57  56  97 E10G16    30.09F
HOLLAND        CLOUDY    61  58  90 E8        30.08S
GRAND RAPIDS   CLOUDY    58  56  93 NE14      30.09S FOG
IONIA          CLOUDY    56  55  96 NE8G16    30.09F FOG
KALAMAZOO      CLOUDY    60  58  92 NE5       30.06F FOG
LUDINGTON      CLOUDY    56  56  99 E5        30.12S
MARSHALL       CLOUDY    59  58  98 E3        30.06S
MOUNT PLEASANT CLOUDY    56  55  97 NE6       30.12F FOG
MUSKEGON       CLOUDY    61  58  90 E8        30.09S
SOUTH HAVEN    CLOUDY    61  60  97 NE7       30.06S
$$
MIZ016>042-010800-
NORTHERN LOWER MICHIGAN

CITY           SKY/WX    TMP DP  RH WIND       PRES   REMARKS
ALPENA         PTCLDY    60  52  74 E7        30.20F
BEAVER ISLAND  CLOUDY    60  55  84 E10G20    30.21F
BELLAIRE       CLOUDY    59  55  86 N6        30.17S
CADILLAC       CLOUDY    54  52  94 E8        30.15S
CHARLEVOIX     CLOUDY    60  55  81 E10       30.22S
FRANKFORT      CLOUDY    58  54  86 CALM      30.15S
GAYLORD        CLOUDY    58  53  84 NE12      30.18F
GRAYLING       CLOUDY    58  53  83 E10       30.17F
HARBOR SPRINGS CLOUDY    60  55  82 NE10      30.20F
HOUGHTON LAKE  CLOUDY    53  52  96 E6        30.17S
MANISTEE       CLOUDY    58  56  93 E9        30.13F
OSCODA         RAIN      57  56  97 E6        30.17F
PELLSTON       CLOUDY    60  53  77 E8        30.22F
ROGERS CITY    CLOUDY    59  54  82 E8        30.23F
TRAVERSE CITY  MOCLDY    61  55  81 NE8       30.15S
$$
MIZ007>008-015-010800-
EASTERN UPPER MICHIGAN

CITY           SKY/WX    TMP DP  RH WIND       PRES   REMARKS
KINROSS        CLOUDY    57  46  66 E9        30.25S
MACKINAC ISLAN CLOUDY    61  53  74 E7G16     30.22F
NEWBERRY       CLOUDY    54  47  77 NE5       30.24S
S. S. MARIE    CLOUDY    58  46  64 NE6       30.25F
MUNISING         N/A     59  52  77 CALM      30.23F
$$
MIZ004>006-011>014-085-010800-
CENTRAL UPPER MICHIGAN

CITY           SKY/WX    TMP DP  RH WIND       PRES   REMARKS
MANISTIQUE     LGT RAIN  56  51  84 CALM      30.22F
ESCANABA       CLOUDY    60  53  77 NE6       30.21F
MENOMINEE      CLOUDY    62  56  80 E12       30.19S
SAWYER-GWINN   MOCLDY    57  50  78 E3        30.25S
$$
MIZ001>003-009>011-084-010800-
WESTERN UPPER MICHIGAN

CITY           SKY/WX    TMP DP  RH WIND       PRES   REMARKS
IRON MOUNTAIN  CLOUDY    53  48  83 N3        30.21F
HOUGHTON       CLEAR     56  50  80 E8        30.25S
COPPER HARBOR    N/A     55  53  93 S3        30.25F
IRONWOOD       PTCLDY    47  47 100 CALM      30.26  FOG
$$

ABBREVIATIONS USED IN REMARKS
   TC - TEMPERATURE IN CELSIUS
  WCI - WIND CHILL INDEX
   HX - HEAT INDEX
  VSB - VISIBILITY




USA.gov is the U.S. government's official web portal to all federal, state and local government web resources and services.